Tracking 30289 objects as of 29-Apr-2025
HD Live streaming from Space Station
objects crossing your sky now

ARIANA 1 DEB

Track ARIANA 1 DEB now!
10-day predictions


NORAD ID: 48260
Int'l Code: 1979-104AL
Perigee: 317.1 km
Apogee: 9,819.3 km
Inclination: 23.0 °
Period: 202.9 minutes
Semi major axis: 11439 km
RCS: Unknown
Launch date: December 24, 1979
Source: European Space Agency (ESA)
Launch site: FRENCH GUIANA (FRGUI)

Note: This is SATELLITE DEBRIS
Your satellite tracking list
Your tracking list is empty




NASA's NSSDC Master Catalog

Two Line Element Set (TLE):
1 48260U 79104AL  25106.67408625  .00008469  00000-0  10210-2 0  9996
2 48260  23.0358 245.1227 4153377 326.2158  13.1546  7.09594910 24418
Source of the keplerian elements: AFSPC